Wind_Speed
18 17 18 18 17 18 17 18 18 19 20 20 20 20 20 20 21 21 21 21 22 22 22 22 22 23 24 24 24 25 26 27 27 27 28 28 28 29 30 30 29 30 30
18 17 17 17 18 18 18 17 18 18 19 20 20 21 21 21 21 20 20 20 20 21 22 22 22 23 24 24 25 26 27 27 27 28 28 29 30 29 29 29 29 30 31
19 18 17 18 18 18 19 18 18 18 18 19 20 20 20 20 20 21 21 20 21 21 22 22 23 23 24 25 26 26 26 27 27 28 28 29 29 29 28 29 29 30 30
20 19 19 18 18 19 20 20 19 19 20 20 20 20 20 20 21 21 21 21 21 22 23 23 23 23 24 24 25 25 26 26 26 26 26 26 27 27 28 28 28 29 30
21 21 20 20 19 20 20 20 20 20 21 20 20 21 21 22 22 22 22 22 23 23 23 23 23 23 24 24 24 25 25 26 26 26 26 26 26 27 28 29 29 29 29
21 21 21 21 21 21 21 21 21 21 21 22 22 23 23 23 23 23 24 24 24 24 24 24 24 24 24 24 25 25 26 26 26 26 26 27 27 27 27 27 28 28 29
22 22 22 22 22 22 21 21 21 22 22 22 22 23 24 24 24 24 24 24 24 24 24 25 24 24 25 25 25 26 26 26 26 26 26 27 27 27 27 27 27 28 28
22 22 22 22 22 22 22 22 21 22 23 23 23 24 24 24 25 24 24 24 25 26 26 25 25 26 26 26 27 27 27 26 26 26 26 26 26 27 27 27 27 27 28
22 22 22 22 22 22 23 23 22 23 24 24 24 25 25 25 25 26 26 26 26 26 26 26 26 27 27 27 27 27 27 26 27 27 26 26 26 27 27 27 28 28 28
23 23 23 23 23 23 23 24 24 24 24 25 25 26 26 26 27 27 27 27 27 27 27 27 27 27 27 28 27 27 27 27 28 28 27 26 26 27 28 29 29 29 28
23 23 23 23 24 24 24 24 25 25 25 26 26 27 27 27 28 27 27 26 27 27 28 28 28 28 27 28 28 27 27 28 28 28 27 27 27 28 28 29 29 29 29
23 24 24 23 23 23 24 24 25 26 26 26 27 28 27 27 28 27 27 27 28 28 28 29 29 29 28 28 28 29 29 28 27 27 27 28 28 28 29 29 29 28 28
23 23 23 22 21 22 23 24 25 26 26 26 27 28 28 28 28 28 27 27 28 28 28 28 29 29 29 28 29 29 29 28 28 28 29 29 29 30 30 30 29 28 28
23 23 22 22 22 22 23 24 24 25 26 27 27 28 28 29 28 28 29 29 29 28 28 28 28 29 29 29 30 29 29 29 29 28 29 29 29 29 29 29 29 28 28
23 23 22 22 22 23 23 23 24 24 25 26 26 27 28 28 28 29 29 29 29 29 29 28 28 28 29 29 30 29 29 29 29 29 28 28 28 28 28 28 29 29 28
23 23 22 23 23 24 24 24 24 24 25 26 26 26 26 27 27 28 29 29 29 28 27 27 28 29 29 29 28 28 28 28 28 28 28 28 28 27 27 28 28 28 28
24 24 23 23 23 24 25 25 25 24 24 25 25 26 26 26 27 28 28 28 28 28 27 27 28 28 29 29 28 28 28 27 27 27 27 27 27 27 27 27 27 27 28
22 22 23 23 23 23 23 24 24 24 25 24 25 26 26 26 27 27 27 27 27 27 26 26 27 27 27 27 26 26 26 26 27 27 27 27 27 26 26 26 26 26 27
21 21 21 22 22 22 22 23 23 24 24 25 25 25 25 25 25 26 26 26 25 25 25 25 26 25 25 25 25 25 25 25 25 25 25 25 25 25 25 25 25 26 26
21 22 22 22 22 22 22 23 24 24 25 25 25 25 25 25 24 25 25 25 25 25 25 25 24 24 24 24 24 24 25 24 24 25 25 24 24 24 24 25 25 25 25
22 22 22 22 22 23 24 24 25 25 26 26 26 26 25 24 24 24 24 25 25 25 25 24 25 25 24 24 24 25 24 24 24 24 24 24 24 24 24 24 24 24 23
23 23 22 22 23 24 24 24 25 26 26 26 26 25 24 24 25 25 25 25 26 25 25 25 25 25 25 26 26 25 25 24 24 24 24 24 24 24 23 23 22 22 22
22 23 23 22 22 23 24 24 25 25 25 25 25 24 24 24 24 25 25 26 26 26 26 25 26 26 26 26 26 25 25 24 24 24 24 23 23 22 23 23 22 22 22
22 22 22 22 23 23 23 24 24 25 24 24 24 24 24 24 24 25 25 25 25 26 26 25 25 25 25 26 26 26 26 25 25 25 24 24 24 23 24 24 24 23 23
23 23 23 23 23 23 23 23 23 24 23 23 23 24 24 24 24 25 25 25 25 25 25 25 26 26 25 25 26 26 26 26 26 25 25 25 25 24 25 24 24 24 24
23 23 23 23 24 24 24 23 23 23 23 23 23 24 24 25 25 25 25 25 25 25 25 25 25 25 25 25 25 25 25 25 25 25 25 24 24 24 24 24 24 23 23
Wind_Direction
281 279 278 281 280 274 270 269 269 271 273 273 270 271 273 272 273 275 278 276 274 274 274 273 272 271 273 275 275 275 276 275 275 274 273 273 273 273 271 268 265 266 267
282 280 280 280 281 279 276 273 271 271 272 273 274 272 273 273 273 274 276 276 275 275 276 277 277 276 274 274 275 275 275 275 274 274 274 273 274 274 271 268 266 266 266
277 278 277 278 280 281 278 276 276 274 275 277 278 276 275 274 276 276 276 277 278 279 279 280 279 279 278 277 277 277 277 276 276 276 274 274 274 273 272 270 268 267 266
274 274 273 274 276 279 278 274 273 273 275 278 280 279 279 280 279 280 282 282 282 282 281 281 280 280 280 279 280 279 278 278 277 277 277 276 275 273 273 271 269 268 267
273 273 275 273 274 274 275 272 271 272 274 275 278 280 282 281 280 280 280 280 281 281 281 281 282 283 281 281 281 279 278 278 278 278 277 277 275 274 273 271 270 269 267
273 273 276 276 276 276 275 273 271 273 275 274 276 279 280 280 280 278 277 278 278 278 279 279 281 283 283 282 282 282 280 279 278 278 277 278 276 274 273 271 270 268 268
271 271 273 275 275 275 274 274 274 274 275 276 278 280 280 280 279 278 277 277 277 277 279 280 280 282 283 283 283 283 281 279 278 278 277 277 273 272 272 271 270 268 267
273 271 271 272 272 272 272 272 274 275 274 276 278 280 280 280 280 280 277 279 279 279 279 280 279 282 282 282 283 283 281 281 281 280 278 275 273 273 271 270 269 269 268
271 271 270 270 271 271 271 272 273 275 276 278 279 279 280 280 280 281 281 280 280 280 279 280 281 282 282 282 283 282 280 281 281 280 277 276 275 275 272 270 269 270 269
269 270 270 270 270 270 270 273 274 275 277 279 278 280 280 280 280 281 283 282 282 281 280 281 281 281 281 280 281 281 280 280 280 279 278 276 276 276 274 272 270 270 268
268 269 270 270 270 270 270 273 275 275 276 277 279 280 281 281 282 283 284 283 283 283 281 281 281 280 279 279 279 280 281 281 280 279 277 277 277 276 274 272 271 270 268
268 270 270 269 268 269 270 273 275 275 276 277 279 279 281 283 284 284 283 283 284 284 284 284 283 281 280 279 279 278 279 280 280 279 278 277 278 277 276 274 272 271 270
268 269 270 268 269 270 273 275 275 276 276 278 279 279 280 281 282 282 283 284 285 285 285 285 283 280 279 278 279 278 277 277 278 278 278 278 278 278 277 274 272 271 269
265 268 270 269 274 277 276 278 278 279 279 279 280 280 281 280 281 281 284 285 286 285 285 285 283 279 278 276 277 276 275 275 276 276 277 278 278 278 277 274 272 271 269
269 269 270 270 275 280 284 283 281 281 282 281 281 282 282 282 282 283 285 286 286 286 285 284 283 281 278 279 278 275 275 275 276 276 277 278 279 279 278 274 271 269 268
269 270 272 274 276 278 281 283 283 282 281 282 282 283 284 285 284 285 285 286 287 288 286 284 283 282 280 280 279 278 277 276 276 277 277 279 280 280 279 276 272 268 267
269 271 273 276 278 281 281 282 281 281 282 282 282 283 285 286 286 286 287 286 286 286 285 284 283 283 282 280 278 279 278 277 277 278 279 280 281 280 278 276 274 270 268
271 273 275 279 282 282 283 282 281 281 283 284 283 284 285 285 285 286 286 284 284 285 285 285 286 285 283 280 278 278 279 278 279 280 280 280 280 280 278 275 273 271 270
274 276 278 282 282 281 282 283 283 285 286 286 285 286 285 285 286 285 284 285 284 284 284 286 288 287 285 281 279 279 279 280 280 281 281 280 280 279 278 276 274 272 270
274 277 280 282 282 280 282 285 286 286 286 287 286 287 287 286 286 285 284 284 286 286 286 286 287 287 287 286 283 280 280 280 280 279 279 279 279 278 277 276 274 272 270
273 276 280 282 283 284 285 286 286 286 288 289 287 287 288 286 285 286 285 285 286 287 287 286 286 286 286 286 286 284 282 281 280 278 277 277 277 279 278 276 274 272 269
274 276 280 283 285 285 286 287 286 287 287 287 287 287 287 286 285 285 284 285 285 286 287 287 286 286 285 284 284 284 282 280 279 278 277 277 277 278 278 277 274 272 270
277 278 279 282 285 286 286 288 288 288 287 287 286 286 287 286 286 287 287 286 286 287 287 287 285 286 287 284 283 282 281 280 280 280 279 279 278 277 276 276 274 272 270
277 279 281 283 285 286 286 288 289 289 288 287 286 285 285 286 286 288 289 289 288 288 288 288 287 287 287 285 283 281 280 282 282 282 280 279 278 277 277 276 274 271 269
278 279 281 282 284 286 286 287 288 287 287 286 285 285 285 286 286 288 289 289 289 289 289 289 289 288 288 286 285 283 282 281 281 280 279 279 278 277 277 275 273 271 270
280 281 282 283 285 285 285 286 287 287 286 286 285 285 285 285 286 288 288 289 290 290 290 290 290 290 289 287 286 286 284 282 281 280 278 278 278 278 278 277 273 270 268
Height
5796 5795 5794 5793 5793 5792 5792 5792 5792 5792 5792 5791 5791 5790 5790 5789 5788 5787 5786 5785 5785 5784 5784 5783 5782 5782 5782 5781 5781 5780 5780 5779 5779 5778 5778 5777 5775 5775 5774 5773 5773 5774 5774
5790 5789 5789 5788 5787 5787 5786 5786 5786 5786 5786 5785 5785 5784 5783 5782 5782 5781 5780 5779 5778 5777 5777 5776 5775 5775 5774 5774 5773 5772 5772 5771 5770 5770 5769 5768 5767 5766 5765 5764 5764 5764 5764
5785 5784 5783 5782 5781 5781 5781 5781 5780 5780 5780 5779 5778 5777 5777 5775 5774 5774 5773 5773 5772 5771 5770 5769 5768 5767 5767 5766 5765 5764 5763 5762 5762 5761 5760 5759 5758 5757 5756 5755 5755 5755 5755
5779 5778 5777 5777 5776 5776 5775 5775 5774 5774 5773 5773 5772 5771 5770 5769 5768 5767 5766 5766 5765 5764 5763 5762 5761 5760 5759 5758 5757 5756 5755 5754 5753 5752 5751 5750 5750 5749 5748 5747 5747 5746 5746
5772 5772 5772 5771 5770 5770 5769 5769 5768 5768 5767 5766 5766 5765 5764 5762 5761 5760 5760 5759 5758 5757 5756 5755 5754 5752 5751 5750 5749 5748 5747 5746 5744 5743 5743 5742 5741 5740 5740 5739 5738 5738 5737
5766 5765 5765 5764 5764 5763 5763 5762 5761 5761 5760 5760 5759 5758 5757 5755 5754 5753 5752 5752 5751 5750 5749 5747 5746 5745 5743 5742 5741 5739 5738 5737 5736 5735 5734 5733 5733 5732 5731 5730 5730 5730 5730
5759 5759 5758 5757 5757 5756 5755 5755 5754 5754 5754 5753 5752 5751 5750 5748 5747 5745 5745 5744 5743 5742 5741 5740 5739 5737 5735 5734 5732 5731 5730 5729 5728 5727 5726 5725 5724 5723 5723 5722 5721 5721 5721
5752 5751 5751 5750 5750 5749 5749 5748 5747 5747 5746 5746 5745 5744 5742 5741 5739 5738 5737 5736 5734 5733 5733 5731 5730 5729 5727 5726 5724 5723 5722 5721 5720 5719 5718 5717 5715 5714 5714 5713 5713 5712 5712
5745 5744 5743 5743 5743 5742 5742 5741 5740 5740 5739 5738 5737 5736 5735 5734 5732 5731 5729 5728 5726 5725 5724 5723 5721 5720 5719 5717 5716 5715 5713 5712 5711 5710 5709 5708 5707 5706 5705 5705 5704 5704 5704
5738 5737 5736 5736 5735 5735 5734 5734 5733 5732 5731 5730 5730 5729 5727 5726 5724 5723 5721 5719 5718 5716 5715 5714 5712 5711 5710 5708 5707 5706 5705 5704 5702 5701 5700 5699 5698 5697 5696 5695 5695 5695 5695
5730 5729 5729 5728 5728 5727 5727 5726 5725 5725 5724 5723 5722 5721 5719 5717 5716 5715 5713 5711 5709 5708 5706 5705 5703 5702 5701 5699 5698 5697 5696 5695 5693 5692 5691 5690 5689 5688 5687 5686 5686 5686 5686
5722 5721 5721 5721 5720 5720 5719 5719 5717 5717 5716 5714 5713 5712 5710 5709 5708 5706 5704 5703 5701 5699 5697 5695 5694 5692 5691 5690 5689 5688 5686 5685 5684 5683 5682 5681 5680 5679 5678 5677 5677 5676 5676
5715 5714 5713 5713 5713 5712 5712 5711 5710 5709 5708 5706 5705 5704 5702 5701 5699 5698 5696 5694 5692 5689 5688 5686 5685 5683 5681 5680 5679 5678 5677 5676 5675 5674 5673 5672 5671 5670 5669 5668 5668 5668 5668
5707 5707 5707 5706 5706 5704 5703 5703 5702 5701 5700 5698 5697 5695 5694 5692 5691 5689 5687 5685 5683 5681 5679 5677 5676 5674 5672 5671 5670 5669 5667 5666 5665 5665 5664 5663 5662 5661 5660 5659 5659 5659 5659
5700 5700 5699 5699 5699 5697 5696 5695 5694 5693 5691 5690 5688 5687 5685 5684 5682 5680 5678 5676 5674 5672 5670 5668 5667 5665 5663 5662 5661 5659 5658 5657 5656 5655 5655 5654 5653 5652 5651 5650 5650 5650 5650
5693 5693 5692 5692 5691 5690 5689 5688 5686 5684 5683 5682 5680 5678 5676 5675 5673 5672 5670 5668 5665 5663 5661 5659 5658 5656 5655 5653 5652 5650 5649 5648 5647 5646 5646 5645 5644 5643 5642 5641 5641 5641 5641
5685 5685 5685 5684 5683 5682 5681 5680 5678 5677 5675 5673 5671 5670 5668 5666 5665 5663 5661 5659 5657 5655 5653 5651 5649 5648 5646 5644 5643 5642 5641 5639 5638 5638 5637 5636 5635 5634 5633 5633 5632 5631 5631
5678 5677 5677 5676 5675 5674 5673 5671 5670 5668 5667 5665 5663 5661 5660 5658 5656 5654 5652 5651 5649 5647 5645 5643 5641 5639 5638 5636 5635 5633 5633 5632 5631 5630 5629 5628 5627 5626 5625 5624 5624 5623 5623
5671 5670 5669 5669 5668 5667 5665 5664 5662 5660 5659 5657 5656 5654 5652 5650 5648 5646 5644 5643 5641 5639 5637 5635 5633 5631 5630 5628 5627 5626 5625 5624 5623 5621 5620 5619 5618 5618 5617 5616 5615 5614 5614
5664 5663 5662 5661 5660 5659 5658 5656 5655 5653 5651 5650 5648 5646 5644 5642 5640 5638 5636 5635 5633 5631 5629 5627 5626 5624 5622 5621 5619 5618 5617 5616 5615 5614 5613 5612 5611 5610 5609 5608 5607 5606 5606
5657 5656 5655 5654 5653 5652 5650 5649 5647 5645 5644 5642 5640 5638 5636 5634 5632 5630 5628 5627 5625 5623 5621 5620 5618 5617 5615 5613 5612 5610 5609 5608 5607 5606 5605 5604 5603 5602 5601 5600 5599 5598 5598
5650 5649 5648 5647 5646 5644 5642 5641 5639 5637 5635 5634 5632 5630 5628 5626 5624 5623 5621 5619 5617 5615 5613 5612 5610 5609 5607 5605 5604 5602 5601 5600 5599 5598 5597 5596 5595 5594 5593 5592 5592 5591 5590
5643 5642 5641 5640 5638 5637 5635 5633 5631 5629 5627 5625 5624 5622 5620 5618 5617 5615 5613 5611 5609 5607 5605 5603 5602 5600 5598 5597 5595 5594 5593 5592 5591 5590 5589 5588 5587 5586 5586 5585 5584 5584 5583
5635 5634 5633 5632 5631 5629 5627 5625 5623 5621 5619 5617 5616 5614 5613 5611 5609 5607 5605 5603 5601 5599 5597 5595 5593 5592 5590 5588 5587 5586 5585 5584 5583 5582 5581 5580 5579 5578 5578 5577 5576 5576 5576
5628 5627 5626 5625 5623 5622 5620 5618 5616 5614 5612 5610 5608 5607 5605 5603 5601 5599 5597 5595 5593 5591 5589 5587 5585 5584 5582 5580 5579 5577 5576 5575 5574 5573 5572 5571 5571 5570 5569 5568 5568 5568 5568
5620 5619 5618 5617 5615 5613 5612 5610 5608 5606 5604 5602 5601 5599 5597 5595 5593 5591 5589 5587 5585 5583 5581 5579 5577 5575 5574 5572 5571 5569 5567 5566 5565 5564 5563 5562 5562 5561 5560 5560 5559 5559 5559